Location: Asheville, NC
(35.6000°N, 82.5500°W)
Time: 04:42:33
(UTC-05:00)

Vanguard 2 - Pass Details

Date: 08 December 2017
Orbit: 553 x 2939 km, 32.9° (Epoch: 22 January)

Event Time Altitude Azimuth Distance (km) Brightness Sun altitude
Rises 16:40:58 0° 231° (SW) 3,908 13.8 5.5°
Reaches altitude 10° 16:44:30 10° 221° (SW) 2,594 12.1 4.9°
Maximum altitude 16:49:25 29° 163° (SSE) 1,288 8.9 4.0°
Drops below altitude 10° 16:53:09 10° 102° (ESE) 1,935 9.2 3.4°
Sets 16:55:23 0° 90° (E) 2,749 9.8 3.0°
